Flag for Hungary Weather past 2 weeks in Szeged, Hungary

Now
44 °F

Overcast.


Feels Like: 42 °F
Forecast: 47 / 58 °F
Wind: 3 mph from Northwest

Location: Szeged

Current Time: Mar 29, 2015 at 6:36:55 AM

Latest Report: Mar 29, 2015 at 5:00 AM


Visibility: 9 mi

Pressure: 29.90 "Hg

Humidity: 74%

Dew point: 36 °F

Location of SzegedLocation

Historic Weather in Szeged — Graph

°F

Szeged temperature yesterday

Maximum temperature yesterday: 53 °F (at 3:00 PM)
Minimum temperature yesterday: 45 °F (at 7:00 AM)
Average temperature yesterday: 48 °F

Past Weeks' High & Low Weather Summary

 TemperatureHumidityPressure
High69 °F (Mar 26, 4:00 PM)96% (Mar 15, 12:00 AM)30.56 "Hg (Mar 15, 12:00 AM)
Low30 °F (Mar 20, 6:00 AM)24% (Mar 20, 4:00 PM)29.68 "Hg (Mar 27, 2:00 PM)
Average47 °F64%30.13 "Hg
* Reported Mar 14 3:00 AM — Mar 29 4:00 AM, Szeged, Weather by CustomWeather, © 2015

Note: Actual official high and low records may vary slightly from our data, if they occured in-between our weather recording intervals... More about our weather records

Advertising

Szeged weather history for previous 24 hours

 ConditionsComfort  
Time TempWeatherWind HumidityBarometerVisibility
4:00 AM
Sun, Mar 29
44 °FOvercast.3 mph73%29.90 "Hg9 mi
3:00 AM45 °FOvercast.2 mph73%29.91 "Hg9 mi
1:00 AM46 °FOvercast.2 mph72%29.92 "Hg9 mi
12:00 AM46 °FOvercast.3 mph71%29.93 "Hg12 mi
11:00 PM
Sat, Mar 28
47 °FOvercast.3 mph70%29.93 "Hg12 mi
10:00 PM47 °FOvercast.3 mph67%29.94 "Hg12 mi
9:00 PM48 °FOvercast.3 mph63%29.94 "Hg12 mi
8:00 PM49 °FOvercast.5 mph63%29.93 "Hg11 mi
7:00 PM50 °FOvercast.5 mph65%29.92 "Hg9 mi
6:00 PM51 °FOvercast.3 mph61%29.90 "Hg12 mi
5:00 PM52 °FOvercast.6 mph57%29.90 "Hg16 mi
4:00 PM53 °FOvercast.7 mph54%29.90 "Hg16 mi
3:00 PM53 °FOvercast.9 mph53%29.90 "Hg12 mi
2:00 PM53 °FOvercast.9 mph58%29.90 "Hg16 mi
1:00 PM51 °FOvercast.10 mph66%29.91 "Hg16 mi
12:00 PM51 °FOvercast.9 mph72%29.92 "Hg12 mi
11:00 AM49 °FOvercast.9 mph75%29.92 "Hg12 mi
10:00 AM48 °FOvercast.8 mph76%29.92 "Hg12 mi
9:00 AM47 °FOvercast.8 mph82%29.91 "Hg9 mi
8:00 AM46 °FLight rain. Overcast.8 mph83%29.90 "Hg7 mi
7:00 AM45 °FLight rain. Overcast.10 mph86%29.89 "Hg6 mi
6:00 AM46 °FLight rain. Overcast.8 mph88%29.87 "Hg6 mi
Weather by CustomWeather, © 2015

See weather overviewHow to use our weather pages